OK1WJW-6 Weather Reports


time (UTC)temp
C
wind
direction
speed
KPH
gust
KPH
rain 1hr
cm
rain 24hr
cm
rain mn
cm
humidity
%
barometer
mb
20260507094036 9 255 4.8 11.3 0.00 1.30 0.05 99 1013.1
20260507090023 8 259 4.8 9.7 0.00 1.30 0.05 99 1012.8
20260507082110 8 267 12.9 24.1 0.00 1.30 0.05 99 1012.4
20260507074056 8 260 9.7 20.9 0.00 1.30 0.05 99 1011.9
20260507070042 8 263 8.0 17.7 0.00 1.30 0.05 99 1011.6
20260507062028 8 257 6.4 20.9 0.00 1.30 0.05 99 1011.3
20260507054015 8 266 3.2 9.7 0.00 1.30 0.05 99 1011.0
20260507050059 8 262 4.8 17.7 0.03 1.30 0.05 99 1010.7
20260507042045 8 233 1.6 9.7 0.03 1.27 0.03 99 1010.0
20260507034032 9 248 1.6 6.4 0.00 1.22 0.00 99 1009.9
20260507030018 9 228 1.6 6.4 0.00 1.22 0.00 99 1009.9
20260507022105 9 261 1.6 6.4 0.00 1.22 0.00 99 1009.5
20260507014051 9 261 9.7 20.9 0.00 1.22 0.00 99 1009.5
20260507010037 9 260 11.3 22.5 0.00 1.22 0.00 99 1009.4
20260507002023 10 270 0.0 6.4 0.00 1.22 0.00 99 1009.2
20260506234109 9 0.0 0.0 0.00 1.22 0.00 99 1009.3
20260506230056 9 0.0 0.0 0.00 1.22 0.00 99 1009.1
20260506222042 10 270 0.0 6.4 0.00 1.22 0.00 99 1008.8
20260506214029 10 0.0 0.0 0.23 1.22 1.22 99 1008.8
20260506210015 10 293 0.0 3.2 0.79 1.19 1.19 99 1008.6
20260506202100 10 272 6.4 17.7 0.43 0.84 0.84 99 1009.0
20260506194046 11 0.0 0.0 0.00 0.43 0.43 99 1007.2
20260506190033 11 303 3.2 6.4 0.23 0.43 0.43 99 1007.4
20260506174105 13 0.0 0.0 0.18 1.50 0.18 98 1006.3
20260506170051 16 50 3.2 6.4 0.00 1.37 0.00 77 1005.9
20260506162038 18 294 3.2 6.4 0.00 1.37 0.00 69 1005.8
20260506154054 17 7 1.6 6.4 0.00 1.37 0.00 74 1006.3
20260506150040 17 245 4.8 9.7 0.00 1.37 0.00 73 1006.5
20260506142025 17 266 4.8 11.3 0.00 1.37 0.00 72 1006.5
20260506134112 18 333 4.8 12.9 0.00 1.37 0.00 69 1006.7
20260506130058 17 276 3.2 9.7 0.00 1.37 0.00 72 1007.1
20260506122044 16 248 3.2 6.4 0.00 1.37 0.00 75 1007.6
20260506114029 16 241 4.8 12.9 0.00 1.37 0.00 74 1007.8
20260506110015 16 174 6.4 20.9 0.00 1.37 0.00 77 1008.2
20260506102101 15 171 1.6 9.7 0.00 1.37 0.00 81 1008.3